Mexicali, Mexico

11:10 PM PDT on April 25, 2017 (GMT -0700)
Gen Rodolfo Sanchez Taboada

Weather History for MMML - May, 2013

Change the Weather History Date:

Friday, May 10, 2013

  Actual Average Record
Temperature  
Mean Temperature 78 °F -  
Max Temperature 93 °F 95 °F 104 °F (2007)
Min Temperature 64 °F 64 °F 53 °F (2003)
Cooling Degree Days 14    
Growing Degree Days 28 (Base 50)    
Moisture  
Dew Point 42 °F    
Average Humidity 26    
Maximum Humidity 52    
Minimum Humidity 11    
Precipitation  
Precipitation 0.00 in - - ()
Sea Level Pressure  
Sea Level Pressure 29.95 in    
Wind  
Wind Speed 2 mph ()    
Max Wind Speed 12 mph    
Max Gust Speed -    
Visibility 10.0 miles    
Events      
Averages and records for this station are not official NWS values.
T = Trace of Precipitation, MM = Missing Value Source: Averaged Metar Reports

Daily Weather History Graph

Daily Weather History Graph

Search for Another Location

Airport or City:

Trip Planner

Search our weather history database for the weather conditions in past years. The results will help you decide how hot, cold, wet, or windy it might be!

Date:

Astronomy

May. 10, 2013 Rise Set
Actual Time 5:45 AM PDT 7:29 PM PDT
Civil Twilight 5:19 AM PDT 7:56 PM PDT
Nautical Twilight 4:46 AM PDT 8:28 PM PDT
Astronomical Twilight 4:12 AM PDT 9:02 PM PDT
Moon 6:13 AM PDT (5/10) 8:21 PM PDT (5/10)
Length of Visible Light 14h 37m
Length of Day
13h 43m
New Moon, 1% of the Moon is Illuminated
May 10
New Moon
May 17
First Quarter
May 24
Full
May 31
Last Quarter
Jun 8
New

Hourly Weather History & Observations

Time (PDT) Temp. Dew Point Humidity Pressure Visibility Wind Dir Wind Speed Gust Speed Precip Events Conditions
12:41 AM 69.8 °F 48.2 °F 46% 29.93 in 10.0 mi Calm Calm - N/A   Scattered Clouds
5:40 AM 64.4 °F 46.4 °F 52% 29.93 in 10.0 mi WNW 3.5 mph - N/A   Clear
6:40 AM 68.0 °F 46.4 °F 46% 29.95 in 10.0 mi Calm Calm - N/A   Clear
7:52 AM 73.4 °F 50.0 °F 44% 30.00 in 10.0 mi NW 6.9 mph - N/A   Clear
8:44 AM 75.2 °F 51.8 °F 44% 29.98 in 10.0 mi NW 8.1 mph - N/A   Clear
9:44 AM 80.6 °F 50.0 °F 34% 29.99 in 10.0 mi Calm Calm - N/A   Clear
10:19 AM 84.2 °F 46.4 °F 27% 29.99 in 10.0 mi Calm Calm - N/A   Clear
10:50 AM 86.0 °F 44.6 °F 23% 30.00 in 10.0 mi Calm Calm - N/A   Clear
11:51 AM 87.8 °F 42.8 °F 21% 29.98 in 10.0 mi Calm Calm - N/A   Clear
12:45 PM 89.6 °F 42.8 °F 20% 29.97 in 10.0 mi Calm Calm - N/A   Clear
1:53 PM 91.4 °F 35.6 °F 14% 30.00 in 10.0 mi West 10.4 mph - N/A   Clear
2:57 PM 93.2 °F 32.0 °F 11% 29.92 in 10.0 mi West 11.5 mph - N/A   Clear
3:40 PM 93.2 °F 33.8 °F 12% 29.91 in 10.0 mi WNW 9.2 mph - N/A   Clear
4:47 PM 91.4 °F 33.8 °F 13% 29.91 in 10.0 mi Calm Calm - N/A   Clear
5:55 PM 93.2 °F 33.8 °F 12% 29.89 in 10.0 mi WNW 8.1 mph - N/A   Clear
6:45 PM 91.4 °F 33.8 °F 13% 29.89 in 10.0 mi Calm Calm - N/A   Clear
7:50 PM 86.0 °F 37.4 °F 18% 29.92 in 10.0 mi Calm Calm - N/A   Clear
8:48 PM 82.4 °F 41.0 °F 23% 29.91 in 10.0 mi South 6.9 mph - N/A   Clear
9:44 PM 78.8 °F 41.0 °F 26% 29.94 in 10.0 mi Calm Calm - N/A   Clear
10:49 PM 75.2 °F 42.8 °F 31% 29.94 in 10.0 mi Calm Calm - N/A   Clear
11:53 PM 78.8 °F 37.4 °F 23% 29.96 in 10.0 mi Calm Calm - N/A   Clear